Time,TemperatureF,DewpointF,PressureIn,WindDirection,WindDirectionDegrees,WindSpeedMPH,WindSpeedGustMPH,Humidity,HourlyPrecipIn,Conditions,Clouds,dailyrainin,SolarRadiationWatts/m^2,SoftwareType,DateUTC
2013-04-27 00:00:00,33.2,27.4,30.24,SSE,150,0.0,3.0,79,0.00,,---,0.00,0.00,VWS V14.00,2013-04-27 04:00:00,
2013-04-27 00:01:00,31.0,27.0,30.42,NW,317,0.0,1.0,85,0.00,,---,0.00,0.00,VWS V14.00,2013-04-27 04:01:00,
2013-04-27 00:06:00,31.0,27.3,30.42,NW,318,0.0,1.0,86,0.00,,---,0.00,0.00,VWS V14.00,2013-04-27 04:06:00,
2013-04-27 00:11:00,30.9,27.2,30.42,NW,318,1.0,2.0,86,0.00,,---,0.00,0.00,VWS V14.00,2013-04-27 04:11:00,
2013-04-27 00:16:00,30.9,27.2,30.42,NW,318,0.0,0.0,86,0.00,,---,0.00,0.00,VWS V14.00,2013-04-27 04:16:00,
2013-04-27 00:21:00,30.8,27.1,30.42,NW,318,0.0,0.0,86,0.00,,---,0.00,0.00,VWS V14.00,2013-04-27 04:21:00,
2013-04-27 00:26:00,30.5,26.8,30.43,NW,317,0.0,0.0,86,0.00,,---,0.00,0.00,VWS V14.00,2013-04-27 04:26:00,
2013-04-27 00:30:00,33.3,25.6,30.25,SSE,168,0.0,3.0,73,0.00,,---,0.00,0.00,VWS V14.00,2013-04-27 04:30:00,
2013-04-27 00:31:00,30.4,26.7,30.42,NW,317,0.0,1.0,86,0.00,,---,0.00,0.00,VWS V14.00,2013-04-27 04:31:00,
2013-04-27 00:36:00,30.4,26.7,30.43,NW,318,0.0,1.0,86,0.00,,---,0.00,0.00,VWS V14.00,2013-04-27 04:36:00,
2013-04-27 00:41:00,30.3,26.6,30.42,NW,318,0.0,1.0,86,0.00,,---,0.00,0.00,VWS V14.00,2013-04-27 04:41:00,
2013-04-27 00:46:00,30.3,26.6,30.43,NW,318,0.0,0.0,86,0.00,,---,0.00,0.00,VWS V14.00,2013-04-27 04:46:00,
2013-04-27 00:51:00,30.3,26.9,30.43,NW,318,0.0,2.0,87,0.00,,---,0.00,0.00,VWS V14.00,2013-04-27 04:51:00,
2013-04-27 00:56:00,30.2,26.8,30.42,NW,318,0.0,2.0,87,0.00,,---,0.00,0.00,VWS V14.00,2013-04-27 04:56:00,
2013-04-27 01:00:00,37.1,26.8,30.25,ESE,115,3.0,7.0,66,0.00,,---,0.00,0.00,VWS V14.00,2013-04-27 05:00:00,
2013-04-27 01:01:00,30.2,26.8,30.42,NW,318,0.0,2.0,87,0.00,,---,0.00,0.00,VWS V14.00,2013-04-27 05:01:00,
2013-04-27 01:06:00,30.1,26.7,30.43,NW,318,1.0,2.0,87,0.00,,---,0.00,0.00,VWS V14.00,2013-04-27 05:06:00,
2013-04-27 01:11:00,30.1,26.7,30.42,NW,318,1.0,2.0,87,0.00,,---,0.00,0.00,VWS V14.00,2013-04-27 05:11:00,
2013-04-27 01:16:00,30.0,26.6,30.42,NW,318,0.0,0.0,87,0.00,,---,0.00,0.00,VWS V14.00,2013-04-27 05:16:00,
2013-04-27 01:21:00,29.9,26.5,30.42,NW,318,0.0,0.0,87,0.00,,---,0.00,0.00,VWS V14.00,2013-04-27 05:21:00,
2013-04-27 01:26:00,29.8,26.4,30.42,NW,318,0.0,0.0,87,0.00,,---,0.00,0.00,VWS V14.00,2013-04-27 05:26:00,
2013-04-27 01:30:00,39.8,25.4,30.26,SSE,152,3.0,7.0,56,0.00,,---,0.00,0.00,VWS V14.00,2013-04-27 05:30:00,
2013-04-27 01:31:00,29.8,26.4,30.42,NW,318,1.0,2.0,87,0.00,,---,0.00,0.00,VWS V14.00,2013-04-27 05:31:00,
2013-04-27 01:36:00,29.7,26.3,30.42,NW,318,0.0,2.0,87,0.00,,---,0.00,0.00,VWS V14.00,2013-04-27 05:36:00,
2013-04-27 01:41:00,29.8,26.4,30.42,NW,318,0.0,2.0,87,0.00,,---,0.00,0.00,VWS V14.00,2013-04-27 05:41:00,
2013-04-27 01:46:00,29.8,26.4,30.42,NW,318,2.0,2.0,87,0.00,,---,0.00,0.00,VWS V14.00,2013-04-27 05:46:00,
2013-04-27 01:51:00,29.7,26.3,30.42,NW,318,0.0,2.0,87,0.00,,---,0.00,0.00,VWS V14.00,2013-04-27 05:51:00,
2013-04-27 01:56:00,29.7,26.3,30.42,NW,317,0.0,2.0,87,0.00,,---,0.00,0.00,VWS V14.00,2013-04-27 05:56:00,
2013-04-27 02:00:00,39.6,24.8,30.27,SSE,161,2.0,8.0,55,0.00,,---,0.00,0.00,VWS V14.00,2013-04-27 06:00:00,
2013-04-27 02:01:00,29.6,26.2,30.42,NW,318,0.0,2.0,87,0.00,,---,0.00,0.00,VWS V14.00,2013-04-27 06:01:00,
2013-04-27 02:06:00,29.6,26.2,30.42,NW,318,1.0,2.0,87,0.00,,---,0.00,0.00,VWS V14.00,2013-04-27 06:06:00,
2013-04-27 02:11:00,29.5,26.1,30.42,NW,318,0.0,2.0,87,0.00,,---,0.00,0.00,VWS V14.00,2013-04-27 06:11:00,
2013-04-27 02:16:00,29.4,26.3,30.42,NW,318,0.0,0.0,88,0.00,,---,0.00,0.00,VWS V14.00,2013-04-27 06:16:00,
2013-04-27 02:21:00,29.4,26.3,30.41,NW,318,0.0,1.0,88,0.00,,---,0.00,0.00,VWS V14.00,2013-04-27 06:21:00,
2013-04-27 02:26:00,29.4,26.3,30.41,NW,317,1.0,2.0,88,0.00,,---,0.00,0.00,VWS V14.00,2013-04-27 06:26:00,
2013-04-27 02:30:00,39.8,24.5,30.28,South,180,2.0,9.0,54,0.00,,---,0.00,0.00,VWS V14.00,2013-04-27 06:30:00,
2013-04-27 02:31:00,29.4,26.3,30.41,NW,317,0.0,2.0,88,0.00,,---,0.00,0.00,VWS V14.00,2013-04-27 06:31:00,
2013-04-27 02:37:00,29.3,26.2,30.41,NW,318,2.0,2.0,88,0.00,,---,0.00,0.00,VWS V14.00,2013-04-27 06:37:00,
2013-04-27 02:42:00,29.4,26.3,30.41,NW,318,1.0,2.0,88,0.00,,---,0.00,0.00,VWS V14.00,2013-04-27 06:42:00,
2013-04-27 02:47:00,29.4,26.3,30.41,NW,318,0.0,1.0,88,0.00,,---,0.00,0.00,VWS V14.00,2013-04-27 06:47:00,
2013-04-27 02:52:00,29.3,26.2,30.40,NW,318,0.0,1.0,88,0.00,,---,0.00,0.00,VWS V14.00,2013-04-27 06:52:00,
2013-04-27 02:57:00,29.3,26.2,30.40,NW,318,1.0,1.0,88,0.00,,---,0.00,0.00,VWS V14.00,2013-04-27 06:57:00,
2013-04-27 03:00:00,39.5,24.2,30.29,South,169,0.0,7.0,54,0.00,,---,0.00,0.00,VWS V14.00,2013-04-27 07:00:00,
2013-04-27 03:02:00,29.2,26.1,30.40,NW,318,0.0,1.0,88,0.00,,---,0.00,0.00,VWS V14.00,2013-04-27 07:02:00,
2013-04-27 03:07:00,29.2,26.1,30.40,NW,318,0.0,1.0,88,0.00,,---,0.00,0.00,VWS V14.00,2013-04-27 07:07:00,
2013-04-27 03:12:00,29.1,26.0,30.41,NW,318,0.0,1.0,88,0.00,,---,0.00,0.00,VWS V14.00,2013-04-27 07:12:00,
2013-04-27 03:17:00,29.0,25.9,30.41,NW,317,0.0,0.0,88,0.00,,---,0.00,0.00,VWS V14.00,2013-04-27 07:17:00,
2013-04-27 03:22:00,29.0,25.9,30.41,NW,318,0.0,0.0,88,0.00,,---,0.00,0.00,VWS V14.00,2013-04-27 07:22:00,
2013-04-27 03:27:00,28.9,25.8,30.41,NW,317,0.0,0.0,88,0.00,,---,0.00,0.00,VWS V14.00,2013-04-27 07:27:00,
2013-04-27 03:30:00,39.5,24.7,30.29,South,178,3.0,10.0,55,0.00,,---,0.00,0.00,VWS V14.00,2013-04-27 07:30:00,
2013-04-27 03:32:00,28.8,25.7,30.41,NW,318,1.0,1.0,88,0.00,,---,0.00,0.00,VWS V14.00,2013-04-27 07:32:00,
2013-04-27 03:37:00,28.9,25.8,30.41,NW,317,1.0,2.0,88,0.00,,---,0.00,0.00,VWS V14.00,2013-04-27 07:37:00,
2013-04-27 03:42:00,28.9,25.8,30.40,NW,318,0.0,2.0,88,0.00,,---,0.00,0.00,VWS V14.00,2013-04-27 07:42:00,
2013-04-27 03:47:00,28.7,25.6,30.40,NW,318,0.0,1.0,88,0.00,,---,0.00,0.00,VWS V14.00,2013-04-27 07:47:00,
2013-04-27 03:52:00,28.7,25.6,30.40,NW,318,1.0,2.0,88,0.00,,---,0.00,0.00,VWS V14.00,2013-04-27 07:52:00,
2013-04-27 03:57:00,28.7,25.6,30.40,NW,317,0.0,2.0,88,0.00,,---,0.00,0.00,VWS V14.00,2013-04-27 07:57:00,
2013-04-27 04:00:00,39.9,25.5,30.30,South,171,1.0,6.0,56,0.00,,---,0.00,7.00,VWS V14.00,2013-04-27 08:00:00,
2013-04-27 04:02:00,28.7,25.6,30.40,NW,318,0.0,2.0,88,0.00,,---,0.00,0.00,VWS V14.00,2013-04-27 08:02:00,
2013-04-27 04:07:00,28.6,25.5,30.40,NW,317,0.0,2.0,88,0.00,,---,0.00,0.00,VWS V14.00,2013-04-27 08:07:00,
2013-04-27 04:12:00,28.5,25.4,30.40,NW,318,0.0,2.0,88,0.00,,---,0.00,0.00,VWS V14.00,2013-04-27 08:12:00,
2013-04-27 04:17:00,28.6,25.8,30.40,NW,318,0.0,0.0,89,0.00,,---,0.00,0.00,VWS V14.00,2013-04-27 08:17:00,
2013-04-27 04:22:00,28.6,25.8,30.40,NW,318,1.0,1.0,89,0.00,,---,0.00,0.00,VWS V14.00,2013-04-27 08:22:00,
2013-04-27 04:27:00,28.5,25.7,30.40,NW,318,1.0,1.0,89,0.00,,---,0.00,0.00,VWS V14.00,2013-04-27 08:27:00,
2013-04-27 04:30:00,40.0,24.7,30.31,South,186,5.0,9.0,54,0.00,,---,0.00,46.00,VWS V14.00,2013-04-27 08:30:00,
2013-04-27 04:32:00,28.5,25.7,30.40,NW,318,0.0,2.0,89,0.00,,---,0.00,0.00,VWS V14.00,2013-04-27 08:32:00,
2013-04-27 04:37:00,28.4,25.6,30.40,NW,318,0.0,2.0,89,0.00,,---,0.00,0.00,VWS V14.00,2013-04-27 08:37:00,
2013-04-27 04:42:00,28.4,25.6,30.40,NW,318,0.0,2.0,89,0.00,,---,0.00,0.00,VWS V14.00,2013-04-27 08:42:00,
2013-04-27 04:47:00,28.4,25.6,30.40,NW,317,0.0,0.0,89,0.00,,---,0.00,0.00,VWS V14.00,2013-04-27 08:47:00,
2013-04-27 04:52:00,28.4,25.6,30.40,NW,318,0.0,1.0,89,0.00,,---,0.00,0.00,VWS V14.00,2013-04-27 08:52:00,
2013-04-27 04:57:00,28.4,25.6,30.40,NW,317,0.0,1.0,89,0.00,,---,0.00,0.00,VWS V14.00,2013-04-27 08:57:00,
2013-04-27 05:00:00,41.0,25.2,30.33,NW,309,2.0,10.0,53,0.00,,---,0.00,39.00,VWS V14.00,2013-04-27 09:00:00,
2013-04-27 05:02:00,28.3,25.5,30.40,NW,318,0.0,1.0,89,0.00,,---,0.00,0.00,VWS V14.00,2013-04-27 09:02:00,
2013-04-27 05:07:00,28.3,25.5,30.40,NW,318,1.0,1.0,89,0.00,,---,0.00,0.00,VWS V14.00,2013-04-27 09:07:00,
2013-04-27 05:12:00,28.3,25.5,30.40,NW,318,0.0,2.0,89,0.00,,---,0.00,0.00,VWS V14.00,2013-04-27 09:12:00,
2013-04-27 05:17:00,28.3,25.5,30.40,NW,317,0.0,0.0,89,0.00,,---,0.00,0.00,VWS V14.00,2013-04-27 09:17:00,
2013-04-27 05:22:00,28.2,25.4,30.40,NW,318,0.0,0.0,89,0.00,,---,0.00,0.00,VWS V14.00,2013-04-27 09:22:00,
2013-04-27 05:27:00,28.2,25.4,30.40,NW,318,1.0,2.0,89,0.00,,---,0.00,0.00,VWS V14.00,2013-04-27 09:27:00,
2013-04-27 05:30:00,42.2,25.4,30.35,South,182,3.0,9.0,51,0.00,,---,0.00,97.00,VWS V14.00,2013-04-27 09:30:00,
2013-04-27 05:32:00,28.1,25.3,30.40,NW,318,0.0,2.0,89,0.00,,---,0.00,0.00,VWS V14.00,2013-04-27 09:32:00,
2013-04-27 05:37:00,28.0,25.2,30.40,NW,318,0.0,2.0,89,0.00,,---,0.00,0.00,VWS V14.00,2013-04-27 09:37:00,
2013-04-27 05:42:00,27.9,25.1,30.40,NW,318,0.0,2.0,89,0.00,,---,0.00,0.00,VWS V14.00,2013-04-27 09:42:00,
2013-04-27 05:47:00,28.0,25.2,30.40,NW,318,0.0,1.0,89,0.00,,---,0.00,0.00,VWS V14.00,2013-04-27 09:47:00,
2013-04-27 05:52:00,28.0,25.2,30.40,NW,318,0.0,2.0,89,0.00,,---,0.00,5.00,VWS V14.00,2013-04-27 09:52:00,
2013-04-27 05:57:00,28.0,25.2,30.40,NW,318,0.0,2.0,89,0.00,,---,0.00,9.00,VWS V14.00,2013-04-27 09:57:00,
2013-04-27 06:00:00,43.7,26.8,30.36,ESE,111,0.0,3.0,51,0.00,,---,0.00,236.00,VWS V14.00,2013-04-27 10:00:00,
2013-04-27 06:02:00,28.0,25.2,30.40,NW,318,2.0,2.0,89,0.00,,---,0.00,11.00,VWS V14.00,2013-04-27 10:02:00,
2013-04-27 06:07:00,28.0,25.2,30.40,NW,318,0.0,2.0,89,0.00,,---,0.00,14.00,VWS V14.00,2013-04-27 10:07:00,
2013-04-27 06:12:00,28.0,25.2,30.40,NW,318,0.0,2.0,89,0.00,,---,0.00,18.00,VWS V14.00,2013-04-27 10:12:00,
2013-04-27 06:17:00,28.1,25.3,30.40,NW,317,0.0,0.0,89,0.00,,---,0.00,21.00,VWS V14.00,2013-04-27 10:17:00,
2013-04-27 06:22:00,28.1,25.3,30.40,NW,318,0.0,1.0,89,0.00,,---,0.00,25.00,VWS V14.00,2013-04-27 10:22:00,
2013-04-27 06:27:00,28.1,25.5,30.41,NW,318,0.0,1.0,90,0.00,,---,0.00,26.00,VWS V14.00,2013-04-27 10:27:00,
2013-04-27 06:30:00,45.7,26.1,30.37,South,184,4.0,7.0,46,0.00,,---,0.00,160.00,VWS V14.00,2013-04-27 10:30:00,
2013-04-27 06:32:00,28.1,25.5,30.41,NW,318,0.0,1.0,90,0.00,,---,0.00,30.00,VWS V14.00,2013-04-27 10:32:00,
2013-04-27 06:37:00,28.2,25.6,30.41,NW,318,0.0,1.0,90,0.00,,---,0.00,44.00,VWS V14.00,2013-04-27 10:37:00,
2013-04-27 06:42:00,28.5,26.0,30.41,NW,318,1.0,1.0,90,0.00,,---,0.00,67.00,VWS V14.00,2013-04-27 10:42:00,
2013-04-27 06:47:00,28.8,26.2,30.41,NW,318,0.0,0.0,90,0.00,,---,0.00,83.00,VWS V14.00,2013-04-27 10:47:00,
2013-04-27 06:52:00,29.3,26.7,30.41,NW,318,0.0,0.0,90,0.00,,---,0.00,95.00,VWS V14.00,2013-04-27 10:52:00,
2013-04-27 06:57:00,29.6,27.0,30.41,NW,318,0.0,0.0,90,0.00,,---,0.00,109.00,VWS V14.00,2013-04-27 10:57:00,
2013-04-27 07:00:00,46.1,27.0,30.37,SE,124,2.0,13.0,47,0.00,,---,0.00,501.00,VWS V14.00,2013-04-27 11:00:00,
2013-04-27 07:02:00,29.9,27.3,30.41,NW,318,0.0,0.0,90,0.00,,---,0.00,114.00,VWS V14.00,2013-04-27 11:02:00,
2013-04-27 07:07:00,30.2,27.6,30.41,NW,318,0.0,0.0,90,0.00,,---,0.00,125.00,VWS V14.00,2013-04-27 11:07:00,
2013-04-27 07:12:00,30.6,28.0,30.41,NW,318,0.0,0.0,90,0.00,,---,0.00,148.00,VWS V14.00,2013-04-27 11:12:00,
2013-04-27 07:17:00,31.0,28.4,30.41,NW,318,0.0,0.0,90,0.00,,---,0.00,158.00,VWS V14.00,2013-04-27 11:17:00,
2013-04-27 07:22:00,31.5,28.9,30.41,NW,318,0.0,0.0,90,0.00,,---,0.00,172.00,VWS V14.00,2013-04-27 11:22:00,
2013-04-27 07:27:00,31.8,29.2,30.41,NW,318,0.0,0.0,90,0.00,,---,0.00,179.00,VWS V14.00,2013-04-27 11:27:00,
2013-04-27 07:30:00,47.6,26.8,30.37,SSW,213,2.0,12.0,44,0.00,,---,0.00,269.00,VWS V14.00,2013-04-27 11:30:00,
2013-04-27 07:32:00,32.4,29.8,30.41,NW,318,0.0,0.0,90,0.00,,---,0.00,199.00,VWS V14.00,2013-04-27 11:32:00,
2013-04-27 07:37:00,33.0,30.4,30.41,NW,318,0.0,0.0,90,0.00,,---,0.00,225.00,VWS V14.00,2013-04-27 11:37:00,
2013-04-27 07:43:00,33.6,30.7,30.41,NW,318,0.0,0.0,89,0.00,,---,0.00,244.00,VWS V14.00,2013-04-27 11:43:00,
2013-04-27 07:48:00,34.2,31.3,30.41,NW,318,0.0,0.0,89,0.00,,---,0.00,272.00,VWS V14.00,2013-04-27 11:48:00,
2013-04-27 07:53:00,34.9,32.0,30.41,NW,318,0.0,0.0,89,0.00,,---,0.00,264.00,VWS V14.00,2013-04-27 11:53:00,
2013-04-27 07:58:00,36.0,33.1,30.41,NW,318,0.0,0.0,89,0.00,,---,0.00,297.00,VWS V14.00,2013-04-27 11:58:00,
2013-04-27 08:00:00,45.6,27.6,30.39,SW,234,4.0,9.0,49,0.00,,---,0.00,313.00,VWS V14.00,2013-04-27 12:00:00,
2013-04-27 08:03:00,36.7,33.8,30.41,NW,318,0.0,0.0,89,0.00,,---,0.00,297.00,VWS V14.00,2013-04-27 12:03:00,
2013-04-27 08:08:00,38.5,35.5,30.41,NW,318,0.0,0.0,89,0.00,,---,0.00,325.00,VWS V14.00,2013-04-27 12:08:00,
2013-04-27 08:13:00,40.0,36.5,30.41,NW,318,0.0,0.0,87,0.00,,---,0.00,320.00,VWS V14.00,2013-04-27 12:13:00,
2013-04-27 08:18:00,41.1,36.3,30.41,NW,318,0.0,0.0,83,0.00,,---,0.00,318.00,VWS V14.00,2013-04-27 12:18:00,
2013-04-27 08:23:00,41.4,36.0,30.41,NW,318,0.0,1.0,81,0.00,,---,0.00,366.00,VWS V14.00,2013-04-27 12:23:00,
2013-04-27 08:28:00,42.3,35.3,30.41,NW,318,0.0,1.0,76,0.00,,---,0.00,383.00,VWS V14.00,2013-04-27 12:28:00,
2013-04-27 08:30:00,45.4,28.8,30.40,South,180,4.0,10.0,52,0.00,,---,0.00,425.00,VWS V14.00,2013-04-27 12:30:00,
2013-04-27 08:33:00,42.9,34.5,30.41,NW,318,0.0,1.0,72,0.00,,---,0.00,394.00,VWS V14.00,2013-04-27 12:33:00,
2013-04-27 08:38:00,44.1,34.2,30.41,West,277,0.0,2.0,68,0.00,,---,0.00,439.00,VWS V14.00,2013-04-27 12:38:00,
2013-04-27 08:43:00,45.5,35.2,30.41,West,281,2.0,2.0,67,0.00,,---,0.00,462.00,VWS V14.00,2013-04-27 12:43:00,
2013-04-27 08:48:00,46.2,32.2,30.41,WNW,299,0.0,3.0,58,0.00,,---,0.00,434.00,VWS V14.00,2013-04-27 12:48:00,
2013-04-27 08:53:00,46.9,31.1,30.41,WNW,299,0.0,3.0,54,0.00,,---,0.00,424.00,VWS V14.00,2013-04-27 12:53:00,
2013-04-27 08:58:00,47.4,31.1,30.41,WSW,249,0.0,3.0,53,0.00,,---,0.00,445.00,VWS V14.00,2013-04-27 12:58:00,
2013-04-27 09:00:00,46.4,30.7,30.40,SW,216,4.0,13.0,54,0.00,,---,0.00,345.00,VWS V14.00,2013-04-27 13:00:00,
2013-04-27 09:03:00,48.0,31.2,30.41,SW,223,2.0,3.0,52,0.00,,---,0.00,490.00,VWS V14.00,2013-04-27 13:03:00,
2013-04-27 09:08:00,48.3,31.0,30.41,WSW,237,2.0,4.0,51,0.00,,---,0.00,512.00,VWS V14.00,2013-04-27 13:08:00,
2013-04-27 09:13:00,48.7,30.9,30.41,ESE,121,1.0,4.0,50,0.00,,---,0.00,526.00,VWS V14.00,2013-04-27 13:13:00,
2013-04-27 09:18:00,49.1,31.8,30.41,South,185,3.0,3.0,51,0.00,,---,0.00,545.00,VWS V14.00,2013-04-27 13:18:00,
2013-04-27 09:23:00,49.2,28.8,30.41,NNW,328,1.0,6.0,45,0.00,,---,0.00,559.00,VWS V14.00,2013-04-27 13:23:00,
2013-04-27 09:28:00,49.5,30.6,30.41,NW,313,5.0,6.0,48,0.00,,---,0.00,571.00,VWS V14.00,2013-04-27 13:28:00,
2013-04-27 09:30:00,47.8,30.6,30.39,NW,307,1.0,6.0,51,0.00,,---,0.00,322.00,VWS V14.00,2013-04-27 13:30:00,
2013-04-27 09:33:00,49.6,28.0,30.41,WNW,289,3.0,6.0,43,0.00,,---,0.00,584.00,VWS V14.00,2013-04-27 13:33:00,
2013-04-27 09:38:00,49.6,28.0,30.41,South,190,0.0,6.0,43,0.00,,---,0.00,598.00,VWS V14.00,2013-04-27 13:38:00,
2013-04-27 09:43:00,49.7,28.1,30.41,SSW,207,3.0,8.0,43,0.00,,---,0.00,613.00,VWS V14.00,2013-04-27 13:43:00,
2013-04-27 09:48:00,50.0,28.4,30.41,West,261,1.0,1.0,43,0.00,,---,0.00,635.00,VWS V14.00,2013-04-27 13:48:00,
2013-04-27 09:53:00,50.6,30.1,30.41,SW,225,3.0,4.0,45,0.00,,---,0.00,640.00,VWS V14.00,2013-04-27 13:53:00,
2013-04-27 09:58:00,51.0,31.0,30.41,NW,313,1.0,5.0,46,0.00,,---,0.00,645.00,VWS V14.00,2013-04-27 13:58:00,
2013-04-27 10:00:00,48.0,30.8,30.39,ESE,106,0.0,7.0,51,0.00,,---,0.00,466.00,VWS V14.00,2013-04-27 14:00:00,
2013-04-27 10:03:00,51.3,31.2,30.40,West,266,0.0,5.0,46,0.00,,---,0.00,654.00,VWS V14.00,2013-04-27 14:03:00,
2013-04-27 10:08:00,51.2,29.5,30.40,NW,317,3.0,7.0,43,0.00,,---,0.00,673.00,VWS V14.00,2013-04-27 14:08:00,
2013-04-27 10:13:00,51.2,30.0,30.40,NNW,344,0.0,7.0,44,0.00,,---,0.00,696.00,VWS V14.00,2013-04-27 14:13:00,
2013-04-27 10:18:00,51.7,29.9,30.40,SW,232,1.0,6.0,43,0.00,,---,0.00,701.00,VWS V14.00,2013-04-27 14:18:00,
2013-04-27 10:23:00,52.2,28.0,30.40,WNW,286,0.0,6.0,39,0.00,,---,0.00,631.00,VWS V14.00,2013-04-27 14:23:00,
2013-04-27 10:28:00,52.1,28.5,30.40,WNW,300,2.0,8.0,40,0.00,,---,0.00,649.00,VWS V14.00,2013-04-27 14:28:00,
2013-04-27 10:30:00,49.9,32.5,30.38,WNW,284,2.0,10.0,51,0.00,,---,0.00,503.00,VWS V14.00,2013-04-27 14:30:00,
2013-04-27 10:33:00,52.3,29.9,30.40,WNW,301,6.0,8.0,42,0.00,,---,0.00,606.00,VWS V14.00,2013-04-27 14:33:00,
2013-04-27 10:38:00,51.9,29.5,30.40,NW,313,3.0,8.0,42,0.00,,---,0.00,670.00,VWS V14.00,2013-04-27 14:38:00,
2013-04-27 10:43:00,51.5,28.6,30.40,NNW,343,4.0,11.0,41,0.00,,---,0.00,738.00,VWS V14.00,2013-04-27 14:43:00,
2013-04-27 10:48:00,51.9,28.4,30.40,NNW,332,2.0,11.0,40,0.00,,---,0.00,701.00,VWS V14.00,2013-04-27 14:48:00,
2013-04-27 10:53:00,52.1,30.3,30.40,NW,313,4.0,11.0,43,0.00,,---,0.00,728.00,VWS V14.00,2013-04-27 14:53:00,
2013-04-27 10:58:00,52.9,29.9,30.40,NNW,330,5.0,11.0,41,0.00,,---,0.00,745.00,VWS V14.00,2013-04-27 14:58:00,
2013-04-27 11:00:00,50.1,33.7,30.38,WSW,245,1.0,11.0,53,0.00,,---,0.00,1225.00,VWS V14.00,2013-04-27 15:00:00,
2013-04-27 11:03:00,52.8,29.8,30.40,SW,229,0.0,11.0,41,0.00,,---,0.00,779.00,VWS V14.00,2013-04-27 15:03:00,
2013-04-27 11:08:00,53.0,30.5,30.40,West,278,2.0,11.0,42,0.00,,---,0.00,795.00,VWS V14.00,2013-04-27 15:08:00,
2013-04-27 11:13:00,53.7,31.2,30.40,WSW,239,0.0,11.0,42,0.00,,---,0.00,758.00,VWS V14.00,2013-04-27 15:13:00,
2013-04-27 11:18:00,53.8,30.1,30.40,SW,222,0.0,4.0,40,0.00,,---,0.00,714.00,VWS V14.00,2013-04-27 15:18:00,
2013-04-27 11:23:00,53.5,31.6,30.40,West,267,4.0,5.0,43,0.00,,---,0.00,779.00,VWS V14.00,2013-04-27 15:23:00,
2013-04-27 11:29:00,53.1,28.2,30.40,WNW,292,6.0,9.0,38,0.00,,---,0.00,745.00,VWS V14.00,2013-04-27 15:29:00,
2013-04-27 11:30:00,52.2,33.6,30.37,WNW,299,4.0,10.0,49,0.00,,---,0.00,696.00,VWS V14.00,2013-04-27 15:30:00,
2013-04-27 11:34:00,52.6,29.6,30.40,NW,326,6.0,9.0,41,0.00,,---,0.00,824.00,VWS V14.00,2013-04-27 15:34:00,
2013-04-27 11:39:00,52.3,27.5,30.40,NNE,30,1.0,10.0,38,0.00,,---,0.00,821.00,VWS V14.00,2013-04-27 15:39:00,
2013-04-27 11:44:00,52.8,29.2,30.40,SW,229,5.0,10.0,40,0.00,,---,0.00,835.00,VWS V14.00,2013-04-27 15:44:00,
2013-04-27 11:48:00,53.3,29.6,30.39,SW,234,1.0,6.0,40,0.00,,---,0.00,840.00,VWS V14.00,2013-04-27 15:48:00,
2013-04-27 11:53:00,52.8,27.9,30.39,East,94,0.0,6.0,38,0.00,,---,0.00,847.00,VWS V14.00,2013-04-27 15:53:00,
2013-04-27 11:58:00,53.7,30.0,30.39,WNW,301,6.0,9.0,40,0.00,,---,0.00,856.00,VWS V14.00,2013-04-27 15:58:00,
2013-04-27 12:00:00,52.4,33.8,30.37,WNW,300,3.0,14.0,49,0.00,,---,0.00,1048.00,VWS V14.00,2013-04-27 16:00:00,
2013-04-27 12:03:00,53.0,26.1,30.38,NE,55,2.0,9.0,35,0.00,,---,0.00,858.00,VWS V14.00,2013-04-27 16:03:00,
2013-04-27 12:08:00,53.1,30.6,30.38,NW,315,4.0,9.0,42,0.00,,---,0.00,863.00,VWS V14.00,2013-04-27 16:08:00,
2013-04-27 12:13:00,54.6,29.5,30.38,SW,227,3.0,9.0,38,0.00,,---,0.00,870.00,VWS V14.00,2013-04-27 16:13:00,
2013-04-27 12:19:00,54.7,26.2,30.38,NE,51,2.0,5.0,33,0.00,,---,0.00,884.00,VWS V14.00,2013-04-27 16:19:00,
2013-04-27 12:24:00,54.6,26.8,30.38,SSW,210,4.0,7.0,34,0.00,,---,0.00,895.00,VWS V14.00,2013-04-27 16:24:00,
2013-04-27 12:29:00,54.5,26.0,30.37,NW,304,2.0,7.0,33,0.00,,---,0.00,904.00,VWS V14.00,2013-04-27 16:29:00,
2013-04-27 12:30:00,52.9,34.3,30.37,NW,323,8.0,11.0,49,0.00,,---,0.00,446.00,VWS V14.00,2013-04-27 16:30:00,
2013-04-27 12:34:00,55.6,27.7,30.37,WNW,286,1.0,7.0,34,0.00,,---,0.00,932.00,VWS V14.00,2013-04-27 16:34:00,
2013-04-27 12:39:00,55.5,27.6,30.37,West,274,4.0,9.0,34,0.00,,---,0.00,923.00,VWS V14.00,2013-04-27 16:39:00,
2013-04-27 12:44:00,55.1,26.5,30.37,SW,236,0.0,10.0,33,0.00,,---,0.00,835.00,VWS V14.00,2013-04-27 16:44:00,
2013-04-27 12:49:00,55.0,25.7,30.36,SSW,209,2.0,4.0,32,0.00,,---,0.00,889.00,VWS V14.00,2013-04-27 16:49:00,
2013-04-27 12:54:00,55.1,27.3,30.37,WNW,289,1.0,8.0,34,0.00,,---,0.00,891.00,VWS V14.00,2013-04-27 16:54:00,
2013-04-27 12:59:00,55.3,24.4,30.37,WNW,298,3.0,10.0,30,0.00,,---,0.00,849.00,VWS V14.00,2013-04-27 16:59:00,
2013-04-27 13:00:00,53.1,35.0,30.37,NW,312,5.0,13.0,50,0.00,,---,0.00,821.00,VWS V14.00,2013-04-27 17:00:00,
2013-04-27 13:04:00,55.7,26.3,30.37,NNW,337,2.0,10.0,32,0.00,,---,0.00,898.00,VWS V14.00,2013-04-27 17:04:00,
2013-04-27 13:09:00,56.0,26.6,30.36,North,5,2.0,10.0,32,0.00,,---,0.00,912.00,VWS V14.00,2013-04-27 17:09:00,
2013-04-27 13:14:00,56.6,27.1,30.36,NW,319,5.0,10.0,32,0.00,,---,0.00,942.00,VWS V14.00,2013-04-27 17:14:00,
2013-04-27 13:19:00,57.3,27.0,30.36,West,281,5.0,12.0,31,0.00,,---,0.00,777.00,VWS V14.00,2013-04-27 17:19:00,
2013-04-27 13:24:00,56.2,28.2,30.36,North,11,7.0,12.0,34,0.00,,---,0.00,545.00,VWS V14.00,2013-04-27 17:24:00,
2013-04-27 13:29:00,56.4,26.2,30.36,NNE,19,4.0,12.0,31,0.00,,---,0.00,624.00,VWS V14.00,2013-04-27 17:29:00,
2013-04-27 13:30:00,51.1,34.6,30.37,NW,304,0.0,10.0,53,0.00,,---,0.00,332.00,VWS V14.00,2013-04-27 17:30:00,
2013-04-27 13:34:00,55.7,26.3,30.35,West,261,0.0,12.0,32,0.00,,---,0.00,694.00,VWS V14.00,2013-04-27 17:34:00,
2013-04-27 13:39:00,56.2,24.4,30.35,SW,232,0.0,12.0,29,0.00,,---,0.00,529.00,VWS V14.00,2013-04-27 17:39:00,
2013-04-27 13:44:00,56.0,25.0,30.35,NW,309,6.0,12.0,30,0.00,,---,0.00,789.00,VWS V14.00,2013-04-27 17:44:00,
2013-04-27 13:49:00,55.3,24.4,30.35,WNW,300,2.0,9.0,30,0.00,,---,0.00,798.00,VWS V14.00,2013-04-27 17:49:00,
2013-04-27 13:54:00,55.1,21.7,30.35,ENE,71,2.0,9.0,27,0.00,,---,0.00,830.00,VWS V14.00,2013-04-27 17:54:00,
2013-04-27 13:59:00,55.3,24.4,30.35,West,266,3.0,9.0,30,0.00,,---,0.00,684.00,VWS V14.00,2013-04-27 17:59:00,
2013-04-27 14:00:00,50.8,33.8,30.37,SW,232,3.0,9.0,52,0.00,,---,0.00,396.00,VWS V14.00,2013-04-27 18:00:00,
2013-04-27 14:04:00,56.0,25.8,30.35,NW,321,4.0,11.0,31,0.00,,---,0.00,617.00,VWS V14.00,2013-04-27 18:04:00,
2013-04-27 14:09:00,56.6,25.5,30.35,West,271,2.0,11.0,30,0.00,,---,0.00,875.00,VWS V14.00,2013-04-27 18:09:00,
2013-04-27 14:14:00,56.5,23.8,30.35,WSW,258,4.0,11.0,28,0.00,,---,0.00,752.00,VWS V14.00,2013-04-27 18:14:00,
2013-04-27 14:19:00,56.6,24.7,30.35,SW,234,1.0,5.0,29,0.00,,---,0.00,877.00,VWS V14.00,2013-04-27 18:19:00,
2013-04-27 14:24:00,57.3,22.7,30.34,WSW,241,3.0,8.0,26,0.00,,---,0.00,510.00,VWS V14.00,2013-04-27 18:24:00,
2013-04-27 14:29:00,57.3,22.7,30.35,WNW,298,2.0,8.0,26,0.00,,---,0.00,452.00,VWS V14.00,2013-04-27 18:29:00,
2013-04-27 14:30:00,50.6,33.2,30.37,WNW,296,0.0,11.0,51,0.00,,---,0.00,698.00,VWS V14.00,2013-04-27 18:30:00,
2013-04-27 14:34:00,57.0,23.4,30.34,SSW,213,3.0,8.0,27,0.00,,---,0.00,438.00,VWS V14.00,2013-04-27 18:34:00,
2013-04-27 14:39:00,56.7,22.2,30.35,West,264,2.0,8.0,26,0.00,,---,0.00,487.00,VWS V14.00,2013-04-27 18:39:00,
2013-04-27 14:44:00,56.5,22.9,30.34,West,264,1.0,11.0,27,0.00,,---,0.00,371.00,VWS V14.00,2013-04-27 18:44:00,
2013-04-27 14:49:00,55.8,20.5,30.34,NNW,338,6.0,12.0,25,0.00,,---,0.00,338.00,VWS V14.00,2013-04-27 18:49:00,
2013-04-27 14:54:00,55.6,20.4,30.34,WNW,290,2.0,12.0,25,0.00,,---,0.00,330.00,VWS V14.00,2013-04-27 18:54:00,
2013-04-27 14:59:00,55.3,16.0,30.34,WNW,303,4.0,12.0,21,0.00,,---,0.00,295.00,VWS V14.00,2013-04-27 18:59:00,
2013-04-27 15:00:00,51.4,33.9,30.37,WSW,244,2.0,9.0,51,0.00,,---,0.00,283.00,VWS V14.00,2013-04-27 19:00:00,
2013-04-27 15:04:00,54.9,19.8,30.34,West,263,3.0,12.0,25,0.00,,---,0.00,311.00,VWS V14.00,2013-04-27 19:04:00,
2013-04-27 15:09:00,54.9,16.8,30.34,NW,304,3.0,12.0,22,0.00,,---,0.00,329.00,VWS V14.00,2013-04-27 19:09:00,
2013-04-27 15:14:00,55.3,20.1,30.34,West,265,1.0,12.0,25,0.00,,---,0.00,327.00,VWS V14.00,2013-04-27 19:14:00,
2013-04-27 15:19:00,55.5,18.3,30.34,SSW,200,0.0,6.0,23,0.00,,---,0.00,350.00,VWS V14.00,2013-04-27 19:19:00,
2013-04-27 15:24:00,55.6,17.4,30.33,WSW,247,1.0,6.0,22,0.00,,---,0.00,478.00,VWS V14.00,2013-04-27 19:24:00,
2013-04-27 15:29:00,55.7,20.4,30.33,WNW,287,0.0,6.0,25,0.00,,---,0.00,468.00,VWS V14.00,2013-04-27 19:29:00,
2013-04-27 15:30:00,51.1,31.6,30.37,NW,304,5.0,11.0,47,0.00,,---,0.00,156.00,VWS V14.00,2013-04-27 19:30:00,
2013-04-27 15:34:00,55.9,19.6,30.33,WSW,248,3.0,6.0,24,0.00,,---,0.00,371.00,VWS V14.00,2013-04-27 19:34:00,
2013-04-27 15:39:00,56.1,17.8,30.32,NW,316,6.0,6.0,22,0.00,,---,0.00,369.00,VWS V14.00,2013-04-27 19:39:00,
2013-04-27 15:44:00,56.0,17.7,30.32,West,261,2.0,7.0,22,0.00,,---,0.00,448.00,VWS V14.00,2013-04-27 19:44:00,
2013-04-27 15:49:00,55.7,16.4,30.32,SW,230,0.0,3.0,21,0.00,,---,0.00,707.00,VWS V14.00,2013-04-27 19:49:00,
2013-04-27 15:54:00,56.0,18.8,30.32,SW,219,3.0,5.0,23,0.00,,---,0.00,840.00,VWS V14.00,2013-04-27 19:54:00,
2013-04-27 15:59:00,57.1,19.7,30.32,SW,235,3.0,6.0,23,0.00,,---,0.00,840.00,VWS V14.00,2013-04-27 19:59:00,
2013-04-27 16:00:00,50.2,31.8,30.37,NNW,328,2.0,10.0,49,0.00,,---,0.00,60.00,VWS V14.00,2013-04-27 20:00:00,
2013-04-27 16:04:00,56.7,21.3,30.31,SW,232,2.0,6.0,25,0.00,,---,0.00,439.00,VWS V14.00,2013-04-27 20:04:00,
2013-04-27 16:09:00,56.9,19.5,30.31,WSW,247,2.0,7.0,23,0.00,,---,0.00,656.00,VWS V14.00,2013-04-27 20:09:00,
2013-04-27 16:14:00,56.3,18.0,30.31,NNW,344,4.0,7.0,22,0.00,,---,0.00,705.00,VWS V14.00,2013-04-27 20:14:00,
2013-04-27 16:19:00,56.6,18.2,30.31,WSW,242,0.0,5.0,22,0.00,,---,0.00,624.00,VWS V14.00,2013-04-27 20:19:00,
2013-04-27 16:24:00,56.5,21.1,30.31,NW,311,2.0,5.0,25,0.00,,---,0.00,526.00,VWS V14.00,2013-04-27 20:24:00,
2013-04-27 16:29:00,56.8,21.4,30.31,NW,311,9.0,9.0,25,0.00,,---,0.00,207.00,VWS V14.00,2013-04-27 20:29:00,
2013-04-27 16:30:00,49.2,31.9,30.38,NW,319,1.0,10.0,51,0.00,,---,0.00,42.00,VWS V14.00,2013-04-27 20:30:00,
2013-04-27 16:34:00,56.7,21.3,30.31,WNW,288,1.0,9.0,25,0.00,,---,0.00,214.00,VWS V14.00,2013-04-27 20:34:00,
2013-04-27 16:39:00,56.3,21.0,30.30,South,183,1.0,9.0,25,0.00,,---,0.00,185.00,VWS V14.00,2013-04-27 20:39:00,
2013-04-27 16:44:00,56.1,23.5,30.30,WNW,297,0.0,9.0,28,0.00,,---,0.00,621.00,VWS V14.00,2013-04-27 20:44:00,
2013-04-27 16:49:00,57.0,25.1,30.30,NW,311,7.0,7.0,29,0.00,,---,0.00,598.00,VWS V14.00,2013-04-27 20:49:00,
2013-04-27 16:54:00,56.8,21.4,30.30,SSW,197,1.0,7.0,25,0.00,,---,0.00,559.00,VWS V14.00,2013-04-27 20:54:00,
2013-04-27 16:59:00,56.7,23.1,30.30,WSW,239,1.0,7.0,27,0.00,,---,0.00,515.00,VWS V14.00,2013-04-27 20:59:00,
2013-04-27 17:00:00,48.5,31.7,30.39,NW,310,1.0,9.0,52,0.00,,---,0.00,23.00,VWS V14.00,2013-04-27 21:00:00,
2013-04-27 17:04:00,57.0,22.5,30.30,SW,235,1.0,7.0,26,0.00,,---,0.00,485.00,VWS V14.00,2013-04-27 21:04:00,
2013-04-27 17:09:00,56.6,22.1,30.30,SW,232,2.0,7.0,26,0.00,,---,0.00,475.00,VWS V14.00,2013-04-27 21:09:00,
2013-04-27 17:14:00,56.4,22.9,30.30,NE,44,3.0,7.0,27,0.00,,---,0.00,452.00,VWS V14.00,2013-04-27 21:14:00,
2013-04-27 17:19:00,56.4,22.0,30.30,North,11,7.0,7.0,26,0.00,,---,0.00,436.00,VWS V14.00,2013-04-27 21:19:00,
2013-04-27 17:24:00,56.2,21.8,30.30,ENE,61,0.0,7.0,26,0.00,,---,0.00,422.00,VWS V14.00,2013-04-27 21:24:00,
2013-04-27 17:29:00,56.7,23.1,30.29,WSW,252,1.0,7.0,27,0.00,,---,0.00,404.00,VWS V14.00,2013-04-27 21:29:00,
2013-04-27 17:30:00,47.3,31.5,30.39,NW,306,0.0,5.0,54,0.00,,---,0.00,7.00,VWS V14.00,2013-04-27 21:30:00,
2013-04-27 17:34:00,56.6,22.1,30.29,WSW,241,0.0,7.0,26,0.00,,---,0.00,388.00,VWS V14.00,2013-04-27 21:34:00,
2013-04-27 17:39:00,56.1,23.5,30.29,SW,227,0.0,7.0,28,0.00,,---,0.00,127.00,VWS V14.00,2013-04-27 21:39:00,
2013-04-27 17:44:00,56.4,22.9,30.29,WNW,297,1.0,7.0,27,0.00,,---,0.00,178.00,VWS V14.00,2013-04-27 21:44:00,
2013-04-27 17:49:00,56.6,24.7,30.29,NNW,344,2.0,4.0,29,0.00,,---,0.00,74.00,VWS V14.00,2013-04-27 21:49:00,
2013-04-27 17:55:00,56.6,25.5,30.29,NNW,341,0.0,6.0,30,0.00,,---,0.00,179.00,VWS V14.00,2013-04-27 21:55:00,
2013-04-27 18:00:00,56.3,24.5,30.29,NW,325,0.0,6.0,29,0.00,,---,0.00,84.00,VWS V14.00,2013-04-27 22:00:00,
2013-04-27 18:05:00,56.2,24.4,30.29,NW,314,2.0,6.0,29,0.00,,---,0.00,74.00,VWS V14.00,2013-04-27 22:05:00,
2013-04-27 18:10:00,56.2,26.0,30.29,NW,314,0.0,6.0,31,0.00,,---,0.00,46.00,VWS V14.00,2013-04-27 22:10:00,
2013-04-27 18:15:00,56.1,25.9,30.29,NW,313,6.0,6.0,31,0.00,,---,0.00,44.00,VWS V14.00,2013-04-27 22:15:00,
2013-04-27 18:20:00,55.9,26.5,30.29,NW,307,4.0,7.0,32,0.00,,---,0.00,44.00,VWS V14.00,2013-04-27 22:20:00,
2013-04-27 18:25:00,55.7,26.3,30.29,WNW,298,5.0,7.0,32,0.00,,---,0.00,40.00,VWS V14.00,2013-04-27 22:25:00,
2013-04-27 18:30:00,55.5,26.9,30.29,WNW,302,4.0,7.0,33,0.00,,---,0.00,40.00,VWS V14.00,2013-04-27 22:30:00,
2013-04-27 18:35:00,55.4,26.8,30.30,NW,325,5.0,7.0,33,0.00,,---,0.00,39.00,VWS V14.00,2013-04-27 22:35:00,
2013-04-27 18:40:00,55.2,26.6,30.29,NW,304,2.0,7.0,33,0.00,,---,0.00,39.00,VWS V14.00,2013-04-27 22:40:00,
2013-04-27 18:46:00,55.2,27.3,30.29,WNW,284,2.0,2.0,34,0.00,,---,0.00,37.00,VWS V14.00,2013-04-27 22:46:00,
2013-04-27 18:51:00,55.1,27.3,30.29,NW,305,2.0,5.0,34,0.00,,---,0.00,33.00,VWS V14.00,2013-04-27 22:51:00,
2013-04-27 18:56:00,55.1,27.3,30.29,NW,305,1.0,5.0,34,0.00,,---,0.00,33.00,VWS V14.00,2013-04-27 22:56:00,
2013-04-27 19:00:00,38.0,30.8,30.40,WNW,300,1.0,1.0,75,0.00,,---,0.00,0.00,VWS V14.00,2013-04-27 23:00:00,
2013-04-27 19:01:00,55.0,27.9,30.29,NW,305,0.0,5.0,35,0.00,,---,0.00,32.00,VWS V14.00,2013-04-27 23:01:00,
2013-04-27 19:06:00,54.9,27.8,30.29,NW,305,0.0,5.0,35,0.00,,---,0.00,28.00,VWS V14.00,2013-04-27 23:06:00,
2013-04-27 19:11:00,54.9,27.8,30.29,NW,305,0.0,5.0,35,0.00,,---,0.00,26.00,VWS V14.00,2013-04-27 23:11:00,
2013-04-27 19:16:00,54.7,29.0,30.29,NW,305,0.0,0.0,37,0.00,,---,0.00,23.00,VWS V14.00,2013-04-27 23:16:00,
2013-04-27 19:21:00,54.5,31.3,30.29,NW,305,0.0,0.0,41,0.00,,---,0.00,21.00,VWS V14.00,2013-04-27 23:21:00,
2013-04-27 19:26:00,54.2,34.4,30.29,NW,305,0.0,0.0,47,0.00,,---,0.00,18.00,VWS V14.00,2013-04-27 23:26:00,
2013-04-27 19:30:00,36.3,30.1,30.41,WNW,300,0.0,2.0,78,0.00,,---,0.00,0.00,VWS V14.00,2013-04-27 23:30:00,
2013-04-27 19:31:00,53.8,33.5,30.29,NW,305,0.0,0.0,46,0.00,,---,0.00,14.00,VWS V14.00,2013-04-27 23:31:00,
2013-04-27 19:36:00,53.1,33.4,30.29,NW,305,0.0,0.0,47,0.00,,---,0.00,11.00,VWS V14.00,2013-04-27 23:36:00,
2013-04-27 19:41:00,51.9,31.8,30.29,NW,305,0.0,0.0,46,0.00,,---,0.00,9.00,VWS V14.00,2013-04-27 23:41:00,
2013-04-27 19:46:00,51.1,33.1,30.29,NW,305,0.0,0.0,50,0.00,,---,0.00,7.00,VWS V14.00,2013-04-27 23:46:00,
2013-04-27 19:51:00,50.5,32.1,30.29,NW,305,0.0,0.0,49,0.00,,---,0.00,0.00,VWS V14.00,2013-04-27 23:51:00,
2013-04-27 19:56:00,49.7,32.3,30.29,NW,305,0.0,0.0,51,0.00,,---,0.00,0.00,VWS V14.00,2013-04-27 23:56:00,
2013-04-27 20:00:00,34.8,29.3,30.42,WNW,300,0.0,2.0,80,0.00,,---,0.00,0.00,VWS V14.00,2013-04-28 00:00:00,
2013-04-27 20:01:00,48.8,32.0,30.29,NW,305,0.0,0.0,52,0.00,,---,0.00,0.00,VWS V14.00,2013-04-28 00:01:00,
2013-04-27 20:06:00,48.5,31.7,30.29,NW,305,0.0,1.0,52,0.00,,---,0.00,0.00,VWS V14.00,2013-04-28 00:06:00,
2013-04-27 20:11:00,47.8,32.0,30.29,NW,305,1.0,1.0,54,0.00,,---,0.00,0.00,VWS V14.00,2013-04-28 00:11:00,
2013-04-27 20:16:00,47.1,31.8,30.29,NW,305,0.0,0.0,55,0.00,,---,0.00,0.00,VWS V14.00,2013-04-28 00:16:00,
2013-04-27 20:21:00,46.5,31.7,30.29,NW,305,0.0,0.0,56,0.00,,---,0.00,0.00,VWS V14.00,2013-04-28 00:21:00,
2013-04-27 20:26:00,45.8,31.9,30.29,NW,305,0.0,1.0,58,0.00,,---,0.00,0.00,VWS V14.00,2013-04-28 00:26:00,
2013-04-27 20:30:00,32.9,27.7,30.42,NW,313,0.0,3.0,81,0.00,,---,0.00,0.00,VWS V14.00,2013-04-28 00:30:00,
2013-04-27 20:31:00,45.2,31.7,30.29,NW,305,0.0,1.0,59,0.00,,---,0.00,0.00,VWS V14.00,2013-04-28 00:31:00,
2013-04-27 20:36:00,44.7,31.7,30.29,NW,305,1.0,2.0,60,0.00,,---,0.00,0.00,VWS V14.00,2013-04-28 00:36:00,
2013-04-27 20:41:00,44.1,31.5,30.29,ENE,59,0.0,3.0,61,0.00,,---,0.00,0.00,VWS V14.00,2013-04-28 00:41:00,
2013-04-27 20:46:00,43.6,31.5,30.29,ENE,59,0.0,0.0,62,0.00,,---,0.00,0.00,VWS V14.00,2013-04-28 00:46:00,
2013-04-27 20:51:00,43.3,31.2,30.29,ENE,59,0.0,1.0,62,0.00,,---,0.00,0.00,VWS V14.00,2013-04-28 00:51:00,
2013-04-27 20:56:00,43.0,30.9,30.29,ENE,59,1.0,1.0,62,0.00,,---,0.00,0.00,VWS V14.00,2013-04-28 00:56:00,
2013-04-27 21:00:00,32.2,27.6,30.43,NW,318,1.0,2.0,83,0.00,,---,0.00,0.00,VWS V14.00,2013-04-28 01:00:00,
2013-04-27 21:01:00,42.7,30.6,30.29,ENE,59,0.0,1.0,62,0.00,,---,0.00,0.00,VWS V14.00,2013-04-28 01:01:00,
2013-04-27 21:06:00,42.3,31.0,30.30,ENE,59,0.0,1.0,64,0.00,,---,0.00,0.00,VWS V14.00,2013-04-28 01:06:00,
2013-04-27 21:11:00,41.9,31.0,30.30,ENE,59,1.0,2.0,65,0.00,,---,0.00,0.00,VWS V14.00,2013-04-28 01:11:00,
2013-04-27 21:16:00,41.7,30.4,30.30,ENE,59,1.0,1.0,64,0.00,,---,0.00,0.00,VWS V14.00,2013-04-28 01:16:00,
2013-04-27 21:21:00,41.5,30.6,30.30,ENE,59,1.0,2.0,65,0.00,,---,0.00,0.00,VWS V14.00,2013-04-28 01:21:00,
2013-04-27 21:26:00,41.3,30.4,30.30,ENE,59,1.0,2.0,65,0.00,,---,0.00,0.00,VWS V14.00,2013-04-28 01:26:00,
2013-04-27 21:30:00,31.0,26.7,30.43,NW,318,0.0,2.0,84,0.00,,---,0.00,0.00,VWS V14.00,2013-04-28 01:30:00,
2013-04-27 21:31:00,41.2,30.3,30.30,ENE,59,1.0,3.0,65,0.00,,---,0.00,0.00,VWS V14.00,2013-04-28 01:31:00,
2013-04-27 21:36:00,41.3,30.1,30.30,ENE,59,2.0,3.0,64,0.00,,---,0.00,0.00,VWS V14.00,2013-04-28 01:36:00,
2013-04-27 21:41:00,41.1,30.2,30.30,ENE,59,2.0,3.0,65,0.00,,---,0.00,0.00,VWS V14.00,2013-04-28 01:41:00,
2013-04-27 21:46:00,40.7,30.2,30.30,ENE,59,0.0,1.0,66,0.00,,---,0.00,0.00,VWS V14.00,2013-04-28 01:46:00,
2013-04-27 21:51:00,40.5,30.0,30.30,ENE,59,0.0,1.0,66,0.00,,---,0.00,0.00,VWS V14.00,2013-04-28 01:51:00,
2013-04-27 21:56:00,40.0,30.3,30.30,ENE,59,0.0,1.0,68,0.00,,---,0.00,0.00,VWS V14.00,2013-04-28 01:56:00,
2013-04-27 22:00:00,31.0,29.0,30.42,NW,318,0.0,2.0,92,0.00,,---,0.00,0.00,VWS V14.00,2013-04-28 02:00:00,
2013-04-27 22:01:00,39.7,30.0,30.30,ENE,59,1.0,2.0,68,0.00,,---,0.00,0.00,VWS V14.00,2013-04-28 02:01:00,
2013-04-27 22:06:00,39.6,29.9,30.30,ENE,59,1.0,3.0,68,0.00,,---,0.00,0.00,VWS V14.00,2013-04-28 02:06:00,
2013-04-27 22:11:00,39.5,29.8,30.30,ENE,59,0.0,3.0,68,0.00,,---,0.00,0.00,VWS V14.00,2013-04-28 02:11:00,
2013-04-27 22:16:00,39.2,29.9,30.30,ENE,59,0.0,0.0,69,0.00,,---,0.00,0.00,VWS V14.00,2013-04-28 02:16:00,
2013-04-27 22:21:00,38.9,29.6,30.30,ENE,59,1.0,1.0,69,0.00,,---,0.00,0.00,VWS V14.00,2013-04-28 02:21:00,
2013-04-27 22:26:00,38.8,29.5,30.30,ENE,59,0.0,1.0,69,0.00,,---,0.00,0.00,VWS V14.00,2013-04-28 02:26:00,
2013-04-27 22:30:00,30.3,26.6,30.43,NW,317,0.0,1.0,86,0.00,,---,0.00,0.00,VWS V14.00,2013-04-28 02:30:00,
2013-04-27 22:31:00,38.6,29.7,30.30,ENE,59,1.0,2.0,70,0.00,,---,0.00,0.00,VWS V14.00,2013-04-28 02:31:00,
2013-04-27 22:36:00,38.6,29.7,30.30,ENE,59,0.0,2.0,70,0.00,,---,0.00,0.00,VWS V14.00,2013-04-28 02:36:00,
2013-04-27 22:41:00,38.5,29.6,30.30,ENE,59,0.0,2.0,70,0.00,,---,0.00,0.00,VWS V14.00,2013-04-28 02:41:00,
2013-04-27 22:46:00,38.3,29.7,30.30,ENE,59,0.0,1.0,71,0.00,,---,0.00,0.00,VWS V14.00,2013-04-28 02:46:00,
2013-04-27 22:51:00,38.1,29.2,30.30,ENE,59,1.0,1.0,70,0.00,,---,0.00,0.00,VWS V14.00,2013-04-28 02:51:00,
2013-04-27 22:56:00,37.9,29.0,30.30,ENE,59,0.0,2.0,70,0.00,,---,0.00,0.00,VWS V14.00,2013-04-28 02:56:00,
2013-04-27 23:00:00,30.0,26.6,30.42,NW,318,0.0,2.0,87,0.00,,---,0.00,0.00,VWS V14.00,2013-04-28 03:00:00,
2013-04-27 23:01:00,37.5,29.0,30.30,ENE,59,0.0,2.0,71,0.00,,---,0.00,0.00,VWS V14.00,2013-04-28 03:01:00,
2013-04-27 23:06:00,37.3,28.8,30.30,ENE,59,1.0,2.0,71,0.00,,---,0.00,0.00,VWS V14.00,2013-04-28 03:06:00,
2013-04-27 23:12:00,37.0,28.8,30.30,ENE,59,0.0,2.0,72,0.00,,---,0.00,0.00,VWS V14.00,2013-04-28 03:12:00,
2013-04-27 23:17:00,36.8,29.0,30.30,ENE,59,0.0,0.0,73,0.00,,---,0.00,0.00,VWS V14.00,2013-04-28 03:17:00,
2013-04-27 23:21:00,36.5,28.7,30.30,ENE,59,2.0,2.0,73,0.00,,---,0.00,0.00,VWS V14.00,2013-04-28 03:21:00,
2013-04-27 23:26:00,36.4,28.6,30.30,ENE,59,1.0,2.0,73,0.00,,---,0.00,0.00,VWS V14.00,2013-04-28 03:26:00,
2013-04-27 23:30:00,29.8,26.4,30.42,NW,318,0.0,2.0,87,0.00,,---,0.00,0.00,VWS V14.00,2013-04-28 03:30:00,
2013-04-27 23:31:00,36.2,28.7,30.30,ENE,59,2.0,2.0,74,0.00,,---,0.00,0.00,VWS V14.00,2013-04-28 03:31:00,
2013-04-27 23:36:00,35.6,28.1,30.30,ENE,59,0.0,2.0,74,0.00,,---,0.00,0.00,VWS V14.00,2013-04-28 03:36:00,
2013-04-27 23:41:00,35.3,28.2,30.30,ENE,59,1.0,2.0,75,0.00,,---,0.00,0.00,VWS V14.00,2013-04-28 03:41:00,
2013-04-27 23:46:00,35.3,28.5,30.30,ENE,59,2.0,2.0,76,0.00,,---,0.00,0.00,VWS V14.00,2013-04-28 03:46:00,
2013-04-27 23:51:00,35.1,28.3,30.30,ENE,59,0.0,2.0,76,0.00,,---,0.00,0.00,VWS V14.00,2013-04-28 03:51:00,
2013-04-27 23:56:00,35.0,28.2,30.30,ENE,59,0.0,2.0,76,0.00,,---,0.00,0.00,VWS V14.00,2013-04-28 03:56:00,